Location: Fundy National Park
(45.6138°N, 65.0316°W)
Time: 08:15:19
(UTC-04:00)

Tiangong - Visible Passes

Search period start: 29 November 2022 00:00
Search period end: 09 December 2022 00:00
Orbit: 385 x 393 km, 41.5° (Epoch: 29 November)

Date Brightness Start Highest point End Pass type
(mag) Time Alt. Az. Time Alt. Az. Time Alt. Az.
29 Nov 0.3 18:38:31 10° SSW 18:39:46 15° S 18:39:46 15° S visible
30 Nov 0.5 17:41:44 10° S 17:42:42 11° SSE 17:43:41 10° SE visible
30 Nov 0.9 19:16:11 10° SW 19:16:47 14° SW 19:16:47 14° SW visible
01 Dec -0.5 18:18:24 10° SW 18:21:01 23° SSE 18:21:25 23° SSE visible
02 Dec 0.1 17:20:48 10° SSW 17:23:00 17° SSE 17:25:11 10° ESE visible
02 Dec -0.1 18:56:29 10° WSW 18:58:17 26° SW 18:58:17 26° SW visible
03 Dec -0.8 17:58:27 10° SW 18:01:19 31° SSE 18:02:48 20° ESE visible
03 Dec 1.4 19:34:56 10° WSW 19:35:06 11° WSW 19:35:06 11° WSW visible
04 Dec -1.1 18:36:43 10° WSW 18:39:35 38° S 18:39:35 38° S visible
05 Dec -1.0 17:38:31 10° WSW 17:41:29 36° S 17:44:03 13° ESE visible
05 Dec 0.7 19:15:13 10° WSW 19:16:21 18° WSW 19:16:21 18° WSW visible
06 Dec -0.9 18:16:52 10° WSW 18:19:50 36° S 18:20:49 28° SE visible
07 Dec -0.9 17:18:31 10° WSW 17:21:31 38° S 17:24:31 10° ESE visible
07 Dec 0.0 18:55:25 10° WSW 18:57:38 23° SSW 18:57:38 23° SSW visible
08 Dec -0.5 17:56:54 10° WSW 17:59:45 30° SSW 18:02:11 13° SE visible
